Wind_Speed
15 14 13 12 11 10 10 9 9 8 7 7 6 6 7 7 9 10 12 12 14 12 11 11 11 11 12 12 12 12 11 11 11
14 14 13 13 12 11 10 11 9 8 7 7 7 6 7 8 9 11 12 13 13 12 11 10 11 12 13 13 13 13 13 13 13
13 13 13 13 12 11 11 10 9 8 7 7 7 6 7 8 10 11 13 13 12 11 10 10 11 12 13 13 14 14 14 15 15
14 14 13 12 12 11 11 10 8 8 8 6 7 6 7 8 10 12 12 12 12 11 10 10 10 11 12 12 13 14 15 16 15
15 14 14 13 13 11 10 9 8 7 7 6 6 6 6 8 9 11 12 12 11 11 9 9 9 10 10 11 12 13 14 15 15
15 14 13 13 13 12 11 10 8 7 6 5 6 5 7 8 9 10 11 11 10 10 8 7 8 8 9 10 10 12 13 14 14
15 15 14 13 13 12 11 9 8 6 5 4 4 4 5 6 8 10 11 10 9 9 8 6 7 8 8 7 9 11 11 12 12
16 16 15 14 13 12 11 9 8 6 4 3 3 3 4 6 7 8 10 9 8 8 7 6 7 7 7 6 8 10 11 11 11
17 16 16 14 13 12 11 9 8 6 4 3 1 2 3 4 5 7 8 7 7 8 6 6 6 6 7 7 8 9 9 10 10
18 17 16 14 14 13 11 10 9 7 5 4 2 1 1 3 4 6 7 6 7 6 5 5 5 6 7 8 9 9 10 10 10
18 18 16 15 14 12 11 11 9 8 7 6 4 3 1 1 2 3 5 5 5 5 5 5 5 6 7 7 9 9 9 10 10
19 17 16 15 13 12 12 11 10 9 8 8 6 5 3 2 1 2 3 4 4 5 5 5 5 6 7 7 8 9 10 11 11
20 18 17 15 14 13 13 12 11 11 10 9 8 7 6 4 2 2 2 3 4 4 4 5 6 7 8 8 7 8 9 10 12
20 19 17 16 14 13 13 13 12 12 12 11 10 9 7 6 4 3 3 4 4 4 4 5 6 7 8 9 9 8 9 10 10
22 20 18 16 14 14 14 14 14 14 13 12 12 11 9 7 6 5 5 5 5 5 5 6 7 9 9 10 10 10 10 11 12
25 23 19 17 16 17 16 15 15 15 14 14 13 13 11 10 8 7 7 6 6 6 7 7 8 9 9 9 8 9 10 10 11
27 24 21 19 18 18 18 17 17 17 16 15 15 14 13 12 11 10 9 8 7 7 8 9 10 10 10 10 9 8 9 10 10
29 26 23 21 19 20 19 18 18 18 18 17 16 16 15 14 13 12 12 11 10 10 10 10 11 11 11 10 10 9 9 10 11
30 29 26 24 22 21 21 20 20 20 19 19 18 18 17 16 16 15 14 13 13 13 12 12 13 13 13 12 12 11 10 10 11
33 31 29 26 24 23 23 22 22 22 22 21 21 20 19 19 18 17 16 16 15 15 14 14 14 15 15 14 13 13 13 12 11
Wind_Direction
176 174 173 169 167 163 162 154 149 140 127 108 89 80 67 56 44 31 24 16 15 15 17 26 34 33 29 24 25 26 22 20 17
182 177 174 170 167 168 161 154 149 137 120 107 92 73 64 48 35 26 20 17 17 22 27 34 40 37 32 31 31 30 28 27 23
185 180 174 170 170 167 158 153 147 132 116 99 89 70 58 44 34 25 22 18 22 33 38 44 43 38 31 29 30 30 30 29 24
185 180 174 171 171 164 159 153 142 128 113 98 84 72 57 40 30 27 23 25 30 39 41 46 40 36 30 30 30 32 31 29 25
182 181 175 171 169 166 161 154 144 133 118 103 85 69 54 44 34 30 28 30 39 44 44 44 37 33 31 31 29 31 32 29 26
180 180 175 174 169 168 165 159 151 144 125 106 82 64 46 40 35 34 36 38 46 50 49 44 35 29 29 26 26 29 30 28 23
177 178 177 176 172 170 168 164 159 150 131 116 81 63 53 39 40 37 44 47 53 55 49 39 27 24 18 12 22 26 27 25 21
177 179 178 178 174 175 173 171 170 160 153 131 91 57 44 35 37 39 49 47 49 51 43 33 29 14 2 357 16 20 19 16 17
182 181 181 179 178 181 179 179 180 179 176 167 137 70 38 34 29 37 46 46 51 51 35 24 17 2 355 356 10 13 14 9 7
184 186 185 185 185 185 186 189 191 193 195 200 191 181 48 24 23 31 31 31 46 47 32 28 11 351 353 358 3 8 5 3 1
189 189 190 190 191 193 196 198 199 204 206 209 210 209 195 347 9 17 20 14 30 34 26 21 7 345 347 357 354 2 355 352 354
194 195 196 196 197 199 205 208 209 215 218 217 219 220 217 229 290 342 358 353 6 14 17 14 0 336 334 342 347 348 346 341 343
198 199 201 200 202 206 213 215 217 221 224 223 222 223 224 233 246 284 317 326 341 350 1 359 350 335 329 329 332 334 334 335 338
202 201 202 203 205 212 218 222 223 226 227 227 229 229 228 235 243 263 286 301 319 323 334 339 336 331 321 324 322 325 326 328 326
203 203 205 209 213 220 223 226 229 230 230 229 232 234 235 237 246 257 272 287 298 303 312 326 328 324 323 321 326 325 328 327 325
206 207 211 219 222 225 226 228 232 233 232 233 234 235 236 237 242 250 258 270 283 294 298 304 308 311 314 317 322 325 323 329 332
209 211 217 225 227 229 230 231 235 237 235 234 235 236 237 239 242 246 253 259 265 270 276 287 295 302 307 312 315 314 317 322 328
212 215 221 229 231 234 234 236 238 239 237 236 237 238 240 242 243 244 250 254 258 262 267 276 285 291 295 300 300 301 303 313 323
216 220 224 229 236 239 238 239 241 243 241 239 239 240 241 244 244 246 248 252 256 261 266 272 280 285 291 296 297 298 299 307 311
220 223 228 232 236 240 242 241 243 243 243 242 243 242 243 244 247 247 252 254 258 263 267 271 275 282 287 291 296 295 294 295 302
Height
3164 3166 3167 3168 3169 3169 3170 3170 3171 3172 3172 3172 3173 3173 3172 3171 3170 3169 3167 3166 3164 3162 3161 3160 3158 3157 3156 3154 3153 3152 3150 3149 3147
3164 3165 3166 3167 3168 3170 3171 3171 3172 3172 3173 3172 3172 3173 3172 3172 3170 3169 3168 3165 3163 3162 3161 3160 3159 3157 3156 3156 3154 3153 3151 3149 3148
3162 3164 3165 3166 3168 3169 3170 3171 3172 3172 3172 3173 3172 3173 3173 3171 3170 3169 3167 3165 3164 3162 3161 3160 3159 3158 3157 3156 3155 3153 3152 3150 3148
3162 3163 3164 3166 3167 3169 3170 3171 3172 3172 3172 3172 3173 3172 3172 3171 3170 3168 3167 3165 3163 3162 3160 3160 3160 3159 3158 3157 3156 3154 3152 3150 3148
3161 3162 3163 3165 3166 3168 3169 3170 3171 3172 3172 3172 3172 3172 3172 3171 3170 3168 3166 3165 3163 3162 3162 3162 3161 3160 3160 3159 3157 3155 3153 3151 3149
3160 3162 3163 3164 3166 3167 3169 3170 3171 3172 3172 3173 3172 3172 3171 3170 3169 3168 3166 3165 3164 3163 3163 3162 3162 3161 3160 3159 3157 3155 3153 3152 3150
3159 3161 3163 3164 3165 3167 3168 3169 3170 3171 3171 3171 3171 3171 3171 3170 3169 3167 3166 3165 3164 3163 3163 3163 3162 3161 3160 3159 3157 3155 3154 3152 3150
3157 3160 3162 3163 3165 3166 3167 3168 3169 3170 3170 3170 3170 3171 3170 3169 3168 3167 3166 3165 3164 3163 3163 3162 3161 3161 3161 3160 3157 3155 3154 3152 3150
3157 3158 3160 3161 3163 3165 3165 3167 3168 3169 3169 3169 3169 3170 3169 3168 3168 3167 3166 3165 3164 3163 3162 3162 3162 3161 3161 3160 3157 3155 3154 3152 3150
3154 3157 3159 3160 3161 3163 3164 3165 3166 3167 3168 3168 3168 3168 3168 3168 3167 3166 3165 3165 3164 3163 3162 3162 3161 3161 3161 3160 3157 3155 3153 3152 3150
3152 3154 3156 3158 3160 3161 3162 3163 3164 3165 3166 3166 3167 3167 3167 3166 3166 3165 3164 3164 3163 3162 3162 3161 3161 3161 3160 3158 3157 3155 3153 3152 3150
3150 3152 3154 3156 3158 3159 3160 3161 3162 3163 3164 3165 3165 3166 3166 3165 3165 3164 3164 3163 3162 3162 3161 3160 3160 3159 3158 3157 3155 3154 3153 3152 3150
3147 3150 3152 3154 3155 3157 3158 3159 3160 3161 3162 3163 3164 3164 3164 3164 3164 3163 3163 3162 3161 3161 3161 3160 3159 3158 3158 3156 3154 3152 3151 3150 3150
3144 3147 3149 3151 3153 3154 3156 3157 3158 3159 3160 3161 3162 3163 3163 3163 3162 3162 3162 3161 3160 3160 3159 3159 3158 3157 3155 3155 3153 3152 3150 3149 3147
3141 3144 3146 3148 3150 3152 3153 3154 3156 3157 3158 3159 3160 3160 3161 3161 3161 3160 3160 3160 3159 3159 3158 3158 3157 3156 3154 3153 3152 3151 3150 3148 3147
3137 3140 3143 3145 3147 3148 3150 3151 3152 3154 3155 3157 3157 3158 3158 3158 3159 3159 3159 3159 3159 3158 3158 3156 3155 3153 3152 3151 3150 3149 3148 3147 3146
3133 3136 3139 3141 3143 3145 3146 3147 3149 3151 3152 3153 3154 3155 3156 3156 3156 3156 3156 3156 3156 3156 3155 3154 3153 3152 3151 3150 3148 3147 3147 3146 3145
3129 3132 3135 3137 3139 3141 3142 3144 3146 3147 3148 3150 3151 3151 3152 3152 3153 3153 3153 3153 3153 3153 3152 3151 3151 3150 3149 3148 3146 3144 3144 3144 3143
3124 3127 3130 3132 3135 3137 3138 3140 3142 3144 3145 3146 3147 3147 3149 3149 3150 3150 3150 3150 3150 3150 3149 3149 3148 3148 3147 3146 3145 3144 3142 3142 3141
3118 3122 3125 3128 3130 3132 3134 3135 3137 3139 3141 3142 3142 3143 3144 3145 3145 3146 3147 3147 3147 3147 3146 3146 3145 3145 3144 3143 3143 3142 3141 3139 3139